AO-07 1 07530U 74089B 26106.28863609 -.00000036 00000-0 65292-4 0 9998 2 07530 101.9942 118.8831 0011887 248.5677 123.0065 12.53697133352767 UO-11 1 14781U 84021B 26105.86347982 .00000773 00000-0 84603-4 0 9999 2 14781 97.8006 72.1616 0008540 39.2959 320.8877 14.90632276247840 AO-27 1 22825U 93061C 26106.11685165 .00000043 00000-0 33459-4 0 9991 2 22825 98.6916 173.5417 0007243 284.1856 75.8522 14.30925227698128 FO-29 1 24278U 96046B 26106.05680027 -.00000019 00000-0 19836-4 0 9993 2 24278 98.5318 323.4110 0348826 257.6399 98.5496 13.53271201464768 GO-32 1 25397U 98043D 26106.25028671 .00000029 00000-0 32542-4 0 9997 2 25397 99.0059 97.4532 0002105 59.3733 300.7653 14.24415989442515 ISS 1 25544U 98067A 26105.87667374 .00005471 00000-0 10765-3 0 9991 2 25544 51.6326 248.4785 0006599 317.1782 42.8691 15.48928061562097 NO-44 1 26931U 01043C 26106.27576323 .00000054 00000-0 51323-4 0 9996 2 26931 67.0519 44.3993 0006658 264.3294 95.7049 14.31931488281588 SO-50 1 27607U 02058C 26105.97976697 .00000417 00000-0 67375-4 0 9995 2 27607 64.5524 321.4340 0075542 273.7912 85.4559 14.82909238255230 CO-55 1 27844U 03031E 26106.28836476 .00000193 00000-0 10234-3 0 9997 2 27844 98.6764 115.6217 0009738 12.8903 347.2523 14.24296578182869 RS-22 1 27939U 03042A 26106.29899840 .00000409 00000-0 71367-4 0 9994 2 27939 98.3462 288.9142 0012520 103.6585 69.6378 14.73353713206437 CO-65 1 32785U 08021C 26106.25438213 .00002455 00000-0 16008-3 0 9993 2 32785 97.8246 86.4279 0007395 232.2641 127.7917 15.08862338975855 CO-66 1 32791U 08021J 26106.20215578 .00010111 00000-0 34402-3 0 9998 2 32791 97.7523 101.2482 0004273 135.1115 225.0471 15.30635483977808 RS-30 1 32953U 08025A 26106.29127082 -.00000050 00000-0 -43037-3 0 9990 2 32953 82.5068 33.9336 0020608 85.6653 274.6781 12.43177355812003 SRMSAT 1 37841U 11058D 26106.23675399 .00000363 00000-0 52901-4 0 9990 2 37841 19.9721 74.4374 0011613 241.6849 237.7724 14.11560608749058 ZACUBE-1 1 39417U 13066B 26105.87420362 .00002122 00000-0 16912-3 0 9995 2 39417 97.8129 67.8801 0044912 99.9908 260.6388 15.00670787671385 Delfi-N3xt 1 39428U 13066N 26106.25464885 .00004862 00000-0 43241-3 0 9996 2 39428 97.8353 26.6593 0077291 53.6622 307.1700 14.94268575665370 GOMX-1 1 39430U 13066Q 26106.28320743 .00000735 00000-0 11827-3 0 9996 2 39430 97.6538 310.6415 0127550 276.5082 82.1616 14.69234280660824 LO-74 1 39440U 13066AA 26106.29181969 .00001384 00000-0 13379-3 0 9998 2 39440 97.8866 55.0491 0056658 231.7441 127.8672 14.93340138667752 AO-73 1 39444U 13066AE 26105.85963904 .00005338 00000-0 33985-3 0 9998 2 39444 97.8233 76.0625 0038549 57.5687 302.9260 15.08594905670260 DTUSAT-2 1 40030U 14033W 26105.93806227 .00004243 00000-0 23638-3 0 9997 2 40030 98.0867 99.7585 0009867 88.9447 271.2913 15.14183025643266 LILACSAT-2 1 40908U 15049K 26106.31213432 .00010765 00000-0 19753-3 0 9991 2 40908 97.4741 140.8684 0008870 113.6750 246.5433 15.49417861586161 Horyu-4 1 41340U 16012D 26106.24066414 .00077002 00000-0 58318-3 0 9998 2 41340 30.9890 163.8219 0006041 148.7282 211.3733 15.70981040561003 Lapan A3 1 41603U 16040E 26106.30733012 .00002319 00000-0 75747-4 0 9998 2 41603 97.1494 104.5085 0008767 230.9495 129.0968 15.32699911545334 CAS-2T 1 41847U 16066G 26106.17959822 .00000345 00000-0 58589-4 0 9992 2 41847 98.3838 182.6133 0341385 317.8606 39.6790 14.44555535495849 TechnoSat 1 42829U 17042E 26106.00737250 .00001485 00000-0 10981-3 0 9998 2 42829 97.4204 266.0736 0016729 309.0944 50.8795 15.04571249477355 AO-91 1 43017U 17073E 26106.07127013 .00004548 00000-0 20460-3 0 9995 2 43017 97.4795 334.5851 0153519 182.3431 177.7099 15.11603942456000 S-Net D 1 43186U 18014G 26106.23439708 .00002724 00000-0 14496-3 0 9999 2 43186 97.5411 11.4262 0006913 224.6653 135.4023 15.16090574449377 S-Net B 1 43187U 18014H 26106.17864241 .00002592 00000-0 13819-3 0 9998 2 43187 97.5416 11.3554 0007676 220.1231 139.9436 15.16061505449364 S-Net A 1 43188U 18014J 26106.16756839 .00002717 00000-0 14454-3 0 9996 2 43188 97.5426 11.5417 0007517 221.0379 139.0289 15.16097011449361 S-Net C 1 43189U 18014K 26106.18217360 .00002533 00000-0 13514-3 0 9992 2 43189 97.5443 11.6215 0009103 213.9946 146.0704 15.16053225447919 Ten-Koh 1 43677U 18084G 26106.06770435 .00001749 00000-0 13606-3 0 9995 2 43677 98.0792 295.8187 0008948 330.5067 29.5651 15.02674260406839 PO-101 1 43678U 18084H 26106.27723446 .00001253 00000-0 10549-3 0 9992 2 43678 98.1049 299.8619 0013789 17.5278 342.6418 15.00149839406933 QO-100 1 43700U 18090A 26106.02038875 .00000151 00000-0 00000-0 0 9997 2 43700 0.0128 248.0542 0001152 157.5269 191.7183 1.00272401 27057 MinXSS-2 1 43758U 18099A 26105.45423412 .00015682 00000-0 35804-3 0 9998 2 43758 97.4572 180.0931 0009286 132.5295 227.6738 15.42917759404448 AO-95 1 43770U 18099N 26106.11191145 .00006462 00000-0 25872-3 0 9991 2 43770 97.4440 166.6358 0008725 196.1500 163.9461 15.25373467403752 SNUSat 2 1 43782U 18099AA 26106.11170095 .00004585 00000-0 21030-3 0 9991 2 43782 97.4121 160.4755 0011586 147.1252 213.0707 15.20875776403590 SnugLite 1 43784U 18099AC 26106.13100460 .00006259 00000-0 24749-3 0 9994 2 43784 97.3933 161.0672 0004280 132.7976 227.3623 15.25824806403850 ITASat 1 1 43786U 18099AE 26106.08465009 .00003884 00000-0 19259-3 0 9994 2 43786 97.4093 158.8538 0012325 202.0240 158.0466 15.18257966403482 EAGLET 1 1 43790U 18099AJ 26106.13706475 .00002173 00000-0 12849-3 0 9998 2 43790 97.4296 157.4516 0010972 192.0099 168.0872 15.12464401402950 ESEO 1 43792U 18099AL 26106.11270727 .00001172 00000-0 88792-4 0 9993 2 43792 97.4046 146.1466 0012229 177.5970 182.5317 15.04060582402472 JO-97 1 43803U 18099AX 26106.13633634 .00009640 00000-0 31721-3 0 9995 2 43803 97.4187 168.8347 0007364 127.2922 232.8992 15.31697363404128 Suomi 100 1 43804U 18099AY 26105.91508668 .00006628 00000-0 25229-3 0 9998 2 43804 97.4247 166.5911 0011631 135.9587 224.2580 15.27017045403915 ISAT 1 43879U 18111D 26106.27316438 .00039292 00000-0 56201-3 0 9994 2 43879 97.5906 37.2189 0007745 136.0803 224.1068 15.56091302401519 UWE-4 1 43880U 18111E 26106.26563212 .00017043 00000-0 39497-3 0 9997 2 43880 97.5862 31.9922 0008487 168.8334 191.3103 15.42462020401221 Sparrow 1 43881U 18111F 26105.80067795 .00055475 00000-0 65684-3 0 9990 2 43881 97.6129 41.4680 0005185 144.5330 215.6272 15.61074858401603 Prox-1 1 44339U 19036A 26106.17123351 .00006800 00000-0 67396-3 0 9998 2 44339 23.9947 168.0236 0006646 41.8349 318.2658 14.89133518364218 Taurus 1 1 44530U 19059C 26106.30682115 .00002087 00000-0 34586-3 0 9997 2 44530 98.6353 267.3470 0009743 143.1891 216.9984 14.71397827349544 TO-108 1 44881U 19093C 26106.24951698 .00000347 00000-0 45289-4 0 9992 2 44881 97.7562 179.9879 0012160 294.0952 65.8992 14.86419852342213 RS-44 1 44909U 19096E 26106.16395101 .00000002 00000-0 -30224-4 0 9990 2 44909 82.5263 20.9177 0216444 289.5459 68.2384 12.79747886294413 SALSAT 1 46495U 20068K 26106.24882507 .00004509 00000-0 16347-3 0 9997 2 46495 97.8862 105.5887 0010795 150.8640 209.3203 15.28879578305894 CSS (TIANHE-1) 1 48274U 21035A 26106.12836677 .00016257 00000-0 18121-3 0 9998 2 48274 41.4686 340.0449 0005797 217.8333 142.2100 15.62435361283464 CUTE 1 49263U 21088D 26106.22698882 .00057607 00000-0 42207-3 0 9996 2 49263 97.4202 200.6909 0003101 192.8273 167.2912 15.73006353252766 TeikyoSat 4 1 49396U 21102B 26106.06969495 .00000771 00000-0 52126-4 0 9995 2 49396 97.3734 137.9592 0013123 141.2027 219.0147 15.09285350243358 Z-Sat 1 49399U 21102E 26106.23570186 .00002884 00000-0 14541-3 0 9997 2 49399 97.3396 143.4409 0018488 102.6745 257.6557 15.17787469244048 KOSEN 1 1 49402U 21102H 26106.05995084 .00004429 00000-0 17463-3 0 9993 2 49402 97.3258 149.4429 0015488 71.0461 289.2455 15.25975129244543 HO-113 1 50466U 21131B 26106.27019282 .00000149 00000-0 59727-4 0 9993 2 50466 98.4950 199.0069 0002882 289.4295 70.6583 14.41296302226192 SNUGLITE 2 1 52899U 22065F 26105.84767228 .00000558 00000-0 11511-3 0 9996 2 52899 98.2107 250.8239 0006862 210.7213 149.3589 14.64226955201870 UmKA 1 (RS40S) 1 57172U 23091G 26106.23074408 .00003426 00000-0 16147-3 0 9997 2 57172 97.5108 165.1821 0012129 342.7202 17.3618 15.20126022154594 CubeBel-2 (EU11S) 1 57175U 23091K 26106.24950756 .00007062 00000-0 26324-3 0 9998 2 57175 97.5106 168.9682 0009109 341.9823 18.1092 15.27721139154845 RS-38S 1 57189U 23091Z 26106.15379372 .00009224 00000-0 28179-3 0 9994 2 57189 97.5136 174.4793 0005922 292.5002 67.5613 15.34103628155176 SONATE-2 1 59112U 24043Q 26106.16211191 .00021494 00000-0 32889-3 0 9991 2 59112 97.5458 252.9988 0007287 74.9107 285.2952 15.54369278118242 GRBBeta 1 60237U 24128C 26106.22149396 .00002120 00000-0 15541-3 0 9990 2 60237 61.9892 73.5868 0047963 121.5936 238.9852 15.06140997 96934 Curium One 1 60242U 24128H 26106.26998003 .00004274 00000-0 25757-3 0 9999 2 60242 61.9786 64.9038 0047570 117.9441 242.6482 15.11522753 97098 ROBUSTA-3A 1 60243U 24128J 26106.26714457 .00004013 00000-0 24789-3 0 9994 2 60243 61.9860 67.0492 0048707 115.3670 245.2480 15.10706025 97068 CatSat 1 60246U 24125J 26106.05298021 .00031536 00000-0 50936-3 0 9998 2 60246 97.2162 318.0332 0025359 55.8372 304.5281 15.52443276 97739 HYPERVIEW-1G (RS66S) 1 61772U 24199AP 26106.26173389 .00048858 00000-0 52332-3 0 9993 2 61772 97.3007 343.4533 0009309 133.8811 226.3218 15.63656112124964 AO-123 1 61781U 24199AY 26106.24387388 .00004519 00000-0 13605-3 0 9993 2 61781 97.3093 335.4850 0014550 164.3680 195.8016 15.34762270124427 JINJUSat 1B 1 63210U 25052A 26106.18141873 .00008870 00000-0 29321-3 0 9997 2 63210 97.4079 2.9244 0001999 344.1333 15.9846 15.31595667 60603 NUSHSAT 1 1 63211U 25052B 26106.24977994 .00010920 00000-0 33844-3 0 9990 2 63211 97.4056 3.3678 0001977 355.4037 4.7187 15.33603999 60645 TEVEL2-4 1 63213U 25052D 26106.25755744 .00009979 00000-0 32065-3 0 9996 2 63213 97.3977 2.6278 0002313 22.9060 337.2284 15.32472769 60621 TEVEL2-5 1 63214U 25052E 26106.27173654 .00009809 00000-0 31663-3 0 9998 2 63214 97.3975 2.6065 0002312 23.7991 336.3357 15.32331684 60626 TEVEL2-6 1 63215U 25052F 26106.21724646 .00009630 00000-0 31130-3 0 9997 2 63215 97.3983 2.5374 0002430 21.7315 338.4030 15.32290903 60615 TEVEL2-1 1 63217U 25052H 26106.22630097 .00009137 00000-0 29975-3 0 9992 2 63217 97.3947 2.2396 0003035 32.8293 327.3137 15.31828555 60601 TEVEL2-3 1 63218U 25052J 26106.22291477 .00009318 00000-0 30522-3 0 9999 2 63218 97.3956 2.2517 0003027 30.4351 329.7066 15.31871706 60600 TEVEL2-2 1 63219U 25052K 26106.22687460 .00009172 00000-0 30087-3 0 9995 2 63219 97.3954 2.2420 0003013 30.4172 329.7244 15.31832627 60605 TEVEL2-9 1 63237U 25052AD 26105.60457266 .00008872 00000-0 30782-3 0 9993 2 63237 97.4014 1.1226 0006779 23.1336 337.0209 15.30007003 60455 TEVEL2-7 1 63238U 25052AE 26106.22318148 .00008350 00000-0 29200-3 0 9992 2 63238 97.4018 1.6788 0006810 20.9427 339.2091 15.29769732 60545 TEVEL2-8 1 63239U 25052AF 26106.23071780 .00008828 00000-0 30871-3 0 9998 2 63239 97.4006 1.6649 0006850 22.3291 337.8246 15.29750654 60547 HYDRA-W 1 63490U 25052BL 26106.25716158 .00665003 18264-3 19217-2 0 9992 2 63490 97.3781 9.7942 0006189 148.3815 211.7833 15.92995451 61107 HADES-ICM (SO-125) 1 63492U 25052BN 26105.68886659 .00169609 00000-0 13067-2 0 9998 2 63492 97.3880 7.8439 0003839 83.5498 276.6202 15.71459742 60929 SPIRONE 1 66657U 25274H 26105.74187892 .00001388 00000-0 13787-3 0 9999 2 66657 97.7463 35.9464 0011080 216.3506 143.6962 14.93289026 20908 K-HERO 1 66660U 25274L 26106.23317647 .00001332 00000-0 13107-3 0 9996 2 66660 97.7473 36.5452 0012871 220.3506 139.6760 14.93729321 20987 SNUGLITE-III DURI 1 66661U 25274M 26106.08918669 .00001261 00000-0 12416-3 0 9994 2 66661 97.7468 36.4208 0013476 222.0125 138.0063 14.93793930 20962 SilverSat 1 66909U 98067XV 26105.06953545 .00663705 20908-3 12552-2 0 9997 2 66909 51.6140 235.4536 0013604 318.9730 41.0255 15.99998535 20958 SAKHACUBE-CHOLBON 1 67290U 25313AU 26106.19031684 .00004974 00000-0 20968-3 0 9997 2 67290 97.3961 182.0483 0009077 205.2553 154.8241 15.23740710 16532 RS95S (QMR-KWT-2) 1 67291U 25313AV 26106.15968439 .00008587 00000-0 35005-3 0 9993 2 67291 97.3961 182.0878 0008984 204.1049 155.9769 15.24660337 16539 Ten-Koh2 1 68261U 25241B 26105.83021768 .00004974 00000-0 22194-3 0 9991 2 68261 51.6431 256.2725 0005041 297.6495 62.3970 15.23083660 5406 IO-86 1 40931U 25360.30710720 .00000000 00000-0 12800-3 0 00 2 40931 6.0006 332.5373 0012733 338.8432 8.1437 14.79075515 01 HADES-SA/SpinnyONE 1 71958C 26067D 26089.49758863 -.00009989 00000 0 -51655-3 0 00 2 71958 97.4320 49.1630 0007687 13.6276 327.6456 15.16316797 13 LILIUM-4 1 71922C 26067AC 26089.50133053 -.00014632 00000 0 -74472-3 0 04 2 71922 97.4497 49.1617 0004341 5.9603 355.7042 15.16896692 16 PARUS-6U1 1 71919C 26067Q 26089.49893470 -.00013781 00000 0 -70600-3 0 07 2 71919 97.4488 49.1589 0005235 359.3198 349.2677 15.16662579 15 JACK-002 1 71927C 26067C 26089.49750414 -.00013014 00000 0 -63498-3 0 02 2 71927 97.4500 49.1567 0002681 143.8886 196.8842 15.18377566 18 SAL-E 1 71904C 26067L 26089.49846595 -.00007742 00000 0 -39877-3 0 08 2 71904 97.4412 49.1602 0006442 8.2554 337.7892 15.16462720 16 DISCO-2 1 71908C 26067U 26089.49955160 -.00011726 00000 0 -58129-3 0 09 2 71908 97.4541 49.1588 0000289 282.0588 69.8834 15.17826845 10